This is the latest recevied weather packets stored in our database for station/object WS2Z. If no packets are shown the sender has not sent any weather packets the latest 10 day(s).
| Time | Temp. | Humidity | Pressure | Rain* | Wind** | Luminosity | Snow |
|---|---|---|---|---|---|---|---|
| 1777902641 | 22.78° C | 81% | 1016.1 hPa | 0 mm | - | 482 W/m² | - |
| 1777902338 | 22.22° C | 84% | 1016.1 hPa | 0 mm | - | 467 W/m² | - |
| 1777902036 | 21.67° C | 85% | 1016.1 hPa | 0 mm | - | 443 W/m² | - |
| 1777901734 | 21.67° C | 86% | 1016.2 hPa | 0 mm | - | 98 W/m² | - |
| 1777901431 | 21.67° C | 86% | 1016.1 hPa | 0 mm | - | 99 W/m² | - |
| 1777901129 | 21.67° C | 86% | 1016 hPa | 0 mm | - | 101 W/m² | - |
| 1777900826 | 21.67° C | 85% | 1016 hPa | 0 mm | - | 109 W/m² | - |
| 1777900523 | 21.67° C | 86% | 1016.1 hPa | 0 mm | - | 110 W/m² | - |
| 1777900220 | 21.67° C | 86% | 1016 hPa | 0 mm | - | 97 W/m² | - |
| 1777899916 | 21.67° C | 85% | 1015.9 hPa | 0 mm | - | 93 W/m² | - |
| 1777899614 | 21.11° C | 86% | 1016.2 hPa | 0 mm | - | 81 W/m² | - |
| 1777899310 | 21.11° C | 86% | 1016 hPa | 0 mm | - | 79 W/m² | - |
| 1777899008 | 21.11° C | 88% | 1016.1 hPa | 0 mm | - | 64 W/m² | - |
| 1777898705 | 21.11° C | 88% | 1015.9 hPa | 0 mm | - | 59 W/m² | - |
| 1777898403 | 21.11° C | 88% | 1015.9 hPa | 0 mm | - | 61 W/m² | - |
| 1777898100 | 21.11° C | 89% | 1015.9 hPa | 0 mm | - | 56 W/m² | - |
| 1777897795 | 20.56° C | 90% | 1015.9 hPa | 0 mm | - | 57 W/m² | - |
| 1777897493 | 20.56° C | 90% | 1015.9 hPa | 0 mm | - | 58 W/m² | - |
| 1777897188 | 20.56° C | 91% | 1015.7 hPa | 0 mm | - | 49 W/m² | - |
| 1777896884 | 20.56° C | 90% | 1015.6 hPa | 0 mm | - | 41 W/m² | - |
| 1777896582 | 20.56° C | 91% | 1015.6 hPa | 0 mm | - | 39 W/m² | - |
| 1777896279 | 20.56° C | 92% | 1015.7 hPa | 0 mm | - | 42 W/m² | - |
| 1777895977 | 20.56° C | 93% | 1015.5 hPa | 0 mm | - | 32 W/m² | - |
| 1777895675 | 20° C | 92% | 1015.7 hPa | 0 mm | - | 33 W/m² | - |
| 1777895372 | 20° C | 93% | 1015.4 hPa | 0 mm | - | 35 W/m² | - |
* Rain latest hour (hover to see other rain measurements)
** Current wind speed in m/s (hover to see current wind gust speed)